TimePST,TemperatureF,Dew PointF,Humidity,Sea Level PressureIn,VisibilityMPH,Wind Direction,Wind SpeedMPH,Gust SpeedMPH,PrecipitationIn,Events,Conditions,WindDirDegrees,DateUTC
12:15 AM,50.0,24.8,37,30.15,10.0,Calm,Calm,-,N/A,,Unknown,0,2013-01-24 08:15:00
12:35 AM,50.0,24.8,37,30.15,10.0,Calm,Calm,-,N/A,,Unknown,0,2013-01-24 08:35:00
12:55 AM,50.0,24.8,37,30.16,10.0,Calm,Calm,-,N/A,,Unknown,0,2013-01-24 08:55:00
1:15 AM,50.0,23.0,35,30.17,10.0,Calm,Calm,-,N/A,,Unknown,0,2013-01-24 09:15:00
1:35 AM,50.0,24.8,37,30.17,10.0,Calm,Calm,-,N/A,,Unknown,0,2013-01-24 09:35:00
1:55 AM,50.0,24.8,37,30.17,10.0,Calm,Calm,-,N/A,,Unknown,0,2013-01-24 09:55:00
2:15 AM,51.8,23.0,33,30.16,10.0,Calm,Calm,-,N/A,,Unknown,0,2013-01-24 10:15:00
2:35 AM,51.8,24.8,35,30.16,10.0,Calm,Calm,-,N/A,,Unknown,0,2013-01-24 10:35:00
2:55 AM,53.6,23.0,30,30.16,10.0,Calm,Calm,-,N/A,,Unknown,0,2013-01-24 10:55:00
3:15 AM,53.6,23.0,30,30.15,10.0,NNE,5.8,-,N/A,,Unknown,20,2013-01-24 11:15:00
3:35 AM,53.6,24.8,33,30.16,10.0,NNE,6.9,-,N/A,,Unknown,30,2013-01-24 11:35:00
3:55 AM,53.6,24.8,33,30.15,10.0,East,5.8,-,N/A,,Unknown,90,2013-01-24 11:55:00
4:15 AM,53.6,24.8,33,30.15,10.0,Calm,Calm,-,N/A,,Unknown,0,2013-01-24 12:15:00
4:35 AM,51.8,26.6,38,30.13,10.0,Calm,Calm,-,N/A,,Unknown,0,2013-01-24 12:35:00
4:55 AM,51.8,24.8,35,30.15,10.0,Calm,Calm,-,N/A,,Unknown,0,2013-01-24 12:55:00
5:15 AM,50.0,26.6,40,30.15,10.0,Calm,Calm,-,N/A,,Unknown,0,2013-01-24 13:15:00
5:35 AM,50.0,24.8,37,30.14,10.0,NNW,4.6,-,N/A,,Unknown,330,2013-01-24 13:35:00
5:55 AM,51.8,26.6,38,30.14,10.0,Calm,Calm,-,N/A,,Unknown,0,2013-01-24 13:55:00
6:15 AM,53.6,26.6,35,30.14,10.0,Calm,Calm,-,N/A,,Unknown,0,2013-01-24 14:15:00
6:35 AM,46.4,28.4,50,30.16,10.0,Calm,Calm,-,N/A,,Unknown,0,2013-01-24 14:35:00
6:55 AM,46.4,28.4,50,30.18,10.0,Calm,Calm,-,N/A,,Unknown,0,2013-01-24 14:55:00
7:15 AM,46.4,30.2,53,30.17,10.0,Calm,Calm,-,N/A,,Unknown,0,2013-01-24 15:15:00
7:35 AM,48.2,30.2,50,30.19,10.0,Calm,Calm,-,N/A,,Unknown,0,2013-01-24 15:35:00
7:55 AM,48.2,33.8,58,30.20,10.0,Calm,Calm,-,N/A,,Unknown,0,2013-01-24 15:55:00
8:15 AM,48.2,32.0,54,30.20,10.0,Calm,Calm,-,N/A,,Unknown,0,2013-01-24 16:15:00
8:35 AM,50.0,32.0,50,30.21,10.0,Calm,Calm,-,N/A,,Unknown,0,2013-01-24 16:35:00
8:55 AM,50.0,32.0,50,30.21,10.0,Calm,Calm,-,N/A,,Unknown,0,2013-01-24 16:55:00
9:15 AM,51.8,30.2,44,30.22,10.0,Calm,Calm,-,N/A,,Unknown,0,2013-01-24 17:15:00
9:35 AM,53.6,32.0,44,30.23,10.0,North,6.9,-,N/A,,Unknown,360,2013-01-24 17:35:00
9:55 AM,51.8,37.4,58,30.24,10.0,Calm,Calm,-,N/A,,Unknown,0,2013-01-24 17:55:00
10:15 AM,53.6,35.6,51,30.25,10.0,Calm,Calm,-,N/A,,Unknown,0,2013-01-24 18:15:00
10:35 AM,53.6,35.6,51,30.25,10.0,West,3.5,-,N/A,,Unknown,270,2013-01-24 18:35:00
10:55 AM,53.6,35.6,51,30.24,10.0,Calm,Calm,-,N/A,,Unknown,0,2013-01-24 18:55:00
11:15 AM,55.4,32.0,41,30.24,10.0,Calm,Calm,-,N/A,,Unknown,0,2013-01-24 19:15:00
11:35 AM,55.4,30.2,38,30.23,10.0,Calm,Calm,-,N/A,,Unknown,0,2013-01-24 19:35:00
11:55 AM,55.4,32.0,41,30.23,10.0,Calm,Calm,-,N/A,,Unknown,0,2013-01-24 19:55:00
12:15 PM,55.4,30.2,38,30.23,10.0,Calm,Calm,-,N/A,,Unknown,0,2013-01-24 20:15:00
12:35 PM,55.4,32.0,41,30.22,8.0,Calm,Calm,-,N/A,,Unknown,0,2013-01-24 20:35:00
12:55 PM,53.6,37.4,54,30.22,9.0,Calm,Calm,-,0.01,,Unknown,0,2013-01-24 20:55:00
1:15 PM,53.6,39.2,58,30.22,9.0,Calm,Calm,-,0.01,,Unknown,0,2013-01-24 21:15:00
1:35 PM,53.6,37.4,54,30.22,10.0,Calm,Calm,-,0.01,,Unknown,0,2013-01-24 21:35:00
1:55 PM,55.4,39.2,54,30.22,10.0,Calm,Calm,-,0.01,,Unknown,0,2013-01-24 21:55:00
2:15 PM,55.4,39.2,54,30.22,10.0,Calm,Calm,-,N/A,,Unknown,0,2013-01-24 22:15:00
2:35 PM,55.4,42.8,63,30.22,10.0,Calm,Calm,-,N/A,,Unknown,0,2013-01-24 22:35:00
2:55 PM,55.4,42.8,63,30.21,10.0,Calm,Calm,-,N/A,,Unknown,0,2013-01-24 22:55:00
3:15 PM,55.4,42.8,63,30.21,10.0,Calm,Calm,-,N/A,,Unknown,0,2013-01-24 23:15:00
3:35 PM,55.4,44.6,67,30.21,10.0,Calm,Calm,-,N/A,,Unknown,0,2013-01-24 23:35:00
3:55 PM,55.4,44.6,67,30.21,10.0,NNE,4.6,-,N/A,,Unknown,30,2013-01-24 23:55:00
4:15 PM,55.4,44.6,67,30.21,10.0,NNE,5.8,-,N/A,,Unknown,30,2013-01-25 00:15:00
4:35 PM,55.4,44.6,67,30.21,10.0,NNE,4.6,-,N/A,,Unknown,30,2013-01-25 00:35:00
4:55 PM,53.6,44.6,72,30.20,10.0,NE,9.2,-,N/A,,Unknown,40,2013-01-25 00:55:00
5:15 PM,53.6,44.6,72,30.20,10.0,NNE,8.1,-,N/A,,Unknown,30,2013-01-25 01:15:00
5:35 PM,53.6,42.8,67,30.23,10.0,NNW,5.8,-,N/A,,Unknown,330,2013-01-25 01:35:00
5:55 PM,53.6,42.8,67,30.24,10.0,NNW,6.9,-,N/A,,Unknown,340,2013-01-25 01:55:00
6:15 PM,53.6,42.8,67,30.24,10.0,North,6.9,-,N/A,,Unknown,350,2013-01-25 02:15:00
6:35 PM,53.6,42.8,67,30.24,10.0,NNE,5.8,-,N/A,,Unknown,20,2013-01-25 02:35:00
6:55 PM,53.6,42.8,67,30.25,10.0,NNE,4.6,-,N/A,,Unknown,20,2013-01-25 02:55:00
7:15 PM,53.6,44.6,72,30.25,10.0,Calm,Calm,-,N/A,,Unknown,0,2013-01-25 03:15:00
7:35 PM,51.8,41.0,67,30.25,10.0,Calm,Calm,-,N/A,,Unknown,0,2013-01-25 03:35:00
7:55 PM,51.8,44.6,76,30.24,10.0,Calm,Calm,-,N/A,,Unknown,0,2013-01-25 03:55:00
8:15 PM,50.0,44.6,82,30.24,10.0,Calm,Calm,-,N/A,,Unknown,0,2013-01-25 04:15:00
8:35 PM,53.6,41.0,62,30.25,10.0,Calm,Calm,-,N/A,,Unknown,0,2013-01-25 04:35:00
8:55 PM,51.8,41.0,67,30.26,10.0,Calm,Calm,-,N/A,,Unknown,0,2013-01-25 04:55:00
9:15 PM,51.8,41.0,67,30.26,10.0,Calm,Calm,-,N/A,,Unknown,0,2013-01-25 05:15:00
9:35 PM,53.6,41.0,62,30.27,10.0,Calm,Calm,-,N/A,,Unknown,0,2013-01-25 05:35:00
9:55 PM,51.8,41.0,67,30.27,10.0,Calm,Calm,-,N/A,,Unknown,0,2013-01-25 05:55:00
10:15 PM,51.8,41.0,67,30.27,10.0,Calm,Calm,-,N/A,,Unknown,0,2013-01-25 06:15:00
10:35 PM,50.0,41.0,71,30.27,10.0,Calm,Calm,-,N/A,,Unknown,0,2013-01-25 06:35:00
10:55 PM,50.0,42.8,76,30.27,10.0,Calm,Calm,-,N/A,,Unknown,0,2013-01-25 06:55:00
11:15 PM,50.0,42.8,76,30.26,10.0,Calm,Calm,-,N/A,,Unknown,0,2013-01-25 07:15:00
11:35 PM,48.2,42.8,82,30.25,10.0,Calm,Calm,-,N/A,,Unknown,0,2013-01-25 07:35:00
11:55 PM,48.2,41.0,76,30.25,10.0,Calm,Calm,-,N/A,,Unknown,0,2013-01-25 07:55:00